DLH1KT EDDF-EDDM

Flight info

Callsign DLH1KT
Flight time 0h 38m
Altitude 23000
Route CINDY8S/18 CINDY Z74 HAREM T104 ROKIL ROKIL1B
Aircraft A321/M-SDE2E3FGIJ1LORWXYZ/HB1

Departure

Time 2026-05-05 15:54
Airport Frankfurt Main Airport (EDDF)

Arrival

Time 2026-05-05 16:33
Airport Munich Airport (EDDM)
Time Latitude Longitude Altitude Speed Heading
2026-05-05 15:18 50.04852 8.56947 363 ft 0 kts 295°
2026-05-05 15:33 50.04852 8.56948 356 ft 0 kts 295°
2026-05-05 15:41 50.04851 8.56951 361 ft 2 kts 295°
2026-05-05 15:41 50.04840 8.56988 362 ft 4 kts 294°
2026-05-05 15:42 50.04831 8.57018 363 ft 4 kts 282°
2026-05-05 15:42 50.04833 8.57054 362 ft 4 kts 231°
2026-05-05 15:42 50.04845 8.57071 362 ft 3 kts 204°
2026-05-05 15:42 50.04821 8.57054 361 ft 4 kts 205°
2026-05-05 15:43 50.04797 8.57037 359 ft 2 kts 205°
2026-05-05 15:43 50.04796 8.57036 359 ft 0 kts 205°
2026-05-05 15:46 50.04776 8.57022 363 ft 6 kts 205°
2026-05-05 15:46 50.04724 8.56984 361 ft 11 kts 205°
2026-05-05 15:47 50.04643 8.56929 361 ft 14 kts 193°
2026-05-05 15:47 50.04587 8.56904 357 ft 12 kts 196°
2026-05-05 15:47 50.04514 8.56872 359 ft 6 kts 194°
2026-05-05 15:47 50.04474 8.56853 365 ft 6 kts 204°
2026-05-05 15:48 50.04439 8.56778 362 ft 14 kts 250°
2026-05-05 15:48 50.04402 8.56620 361 ft 17 kts 249°
2026-05-05 15:48 50.04358 8.56436 361 ft 20 kts 249°
2026-05-05 15:48 50.04307 8.56226 358 ft 22 kts 249°
2026-05-05 15:49 50.04251 8.55996 362 ft 23 kts 249°
2026-05-05 15:49 50.04199 8.55773 353 ft 21 kts 251°
2026-05-05 15:49 50.04154 8.55572 359 ft 19 kts 249°
2026-05-05 15:49 50.04111 8.55398 357 ft 16 kts 249°
2026-05-05 15:50 50.04076 8.55256 358 ft 12 kts 249°
2026-05-05 15:50 50.04048 8.55145 360 ft 10 kts 249°
2026-05-05 15:50 50.04024 8.55046 362 ft 11 kts 249°
2026-05-05 15:50 50.03992 8.54909 358 ft 17 kts 250°
2026-05-05 15:51 50.03942 8.54695 352 ft 22 kts 250°
2026-05-05 15:51 50.03891 8.54478 355 ft 21 kts 249°
2026-05-05 15:51 50.03826 8.54293 351 ft 18 kts 235°
2026-05-05 15:51 50.03777 8.54126 350 ft 17 kts 250°
2026-05-05 15:52 50.03729 8.53926 349 ft 23 kts 249°
2026-05-05 15:52 50.03670 8.53681 344 ft 23 kts 249°
2026-05-05 15:52 50.03615 8.53457 337 ft 21 kts 249°
2026-05-05 15:52 50.03566 8.53259 336 ft 19 kts 249°
2026-05-05 15:53 50.03520 8.53067 338 ft 21 kts 250°
2026-05-05 15:53 50.03467 8.52847 335 ft 21 kts 246°
2026-05-05 15:53 50.03412 8.52658 332 ft 18 kts 239°
2026-05-05 15:53 50.03304 8.52594 332 ft 25 kts 180°
2026-05-05 15:54 50.02833 8.52593 335 ft 114 kts 179°
2026-05-05 15:54 50.01789 8.52554 570 ft 174 kts 185°
2026-05-05 15:54 50.00475 8.52453 1141 ft 205 kts 183°
2026-05-05 15:54 49.98990 8.52447 1127 ft 214 kts 181°
2026-05-05 15:55 49.97515 8.52589 1775 ft 212 kts 173°
2026-05-05 15:55 49.96151 8.53467 2290 ft 223 kts 142°
2026-05-05 15:55 49.95211 8.55459 2682 ft 235 kts 121°
2026-05-05 15:55 49.94458 8.57710 3185 ft 236 kts 118°
2026-05-05 15:56 49.93944 8.60089 3625 ft 241 kts 99°
2026-05-05 15:56 49.93907 8.62833 3954 ft 263 kts 92°
2026-05-05 15:56 49.93857 8.65743 4622 ft 274 kts 95°
2026-05-05 15:56 49.93473 8.68625 5436 ft 275 kts 116°
2026-05-05 15:57 49.92383 8.71022 6313 ft 273 kts 140°
2026-05-05 15:57 49.90878 8.72757 7124 ft 274 kts 147°
2026-05-05 15:57 49.89331 8.74498 7980 ft 277 kts 141°
2026-05-05 15:57 49.88027 8.76705 8812 ft 282 kts 126°
2026-05-05 15:58 49.87036 8.79345 9669 ft 285 kts 121°
2026-05-05 15:58 49.86063 8.82055 10228 ft 297 kts 121°
2026-05-05 15:58 49.85014 8.84957 10481 ft 318 kts 121°
2026-05-05 15:58 49.83911 8.87990 10778 ft 326 kts 121°
2026-05-05 15:59 49.82796 8.91052 10828 ft 327 kts 121°
2026-05-05 15:59 49.81682 8.94114 10832 ft 327 kts 121°
2026-05-05 15:59 49.80569 8.97180 10831 ft 326 kts 121°
2026-05-05 15:59 49.79455 9.00244 11300 ft 330 kts 121°
2026-05-05 16:00 49.78332 9.03336 12095 ft 332 kts 121°
2026-05-05 16:00 49.77196 9.06456 12832 ft 335 kts 121°
2026-05-05 16:00 49.76178 9.09722 13573 ft 340 kts 112°
2026-05-05 16:00 49.75542 9.13260 14212 ft 344 kts 106°
2026-05-05 16:01 49.74869 9.16822 14822 ft 346 kts 114°
2026-05-05 16:01 49.73774 9.20129 15455 ft 347 kts 125°
2026-05-05 16:01 49.72274 9.23050 16133 ft 348 kts 133°
2026-05-05 16:01 49.70664 9.25872 16808 ft 352 kts 133°
2026-05-05 16:02 49.69043 9.28719 17457 ft 355 kts 133°
2026-05-05 16:02 49.67410 9.31595 18073 ft 358 kts 133°
2026-05-05 16:02 49.65763 9.34499 18609 ft 361 kts 133°
2026-05-05 16:02 49.64100 9.37434 19135 ft 364 kts 133°
2026-05-05 16:03 49.62428 9.40382 19677 ft 367 kts 133°
2026-05-05 16:03 49.60741 9.43355 20228 ft 370 kts 133°
2026-05-05 16:03 49.59041 9.46351 20769 ft 372 kts 133°
2026-05-05 16:03 49.57330 9.49361 21283 ft 375 kts 133°
2026-05-05 16:04 49.55602 9.52392 21796 ft 378 kts 133°
2026-05-05 16:04 49.53863 9.55440 22305 ft 380 kts 133°
2026-05-05 16:04 49.52108 9.58513 22743 ft 384 kts 133°
2026-05-05 16:04 49.50355 9.61581 22839 ft 376 kts 133°
2026-05-05 16:05 49.48664 9.64544 22848 ft 364 kts 133°
2026-05-05 16:05 49.47020 9.67422 22838 ft 362 kts 133°
2026-05-05 16:05 49.45356 9.70323 22845 ft 361 kts 133°
2026-05-05 16:05 49.43691 9.73213 22841 ft 361 kts 133°
2026-05-05 16:06 49.42027 9.76103 22838 ft 361 kts 133°
2026-05-05 16:06 49.40374 9.78973 22847 ft 361 kts 133°
2026-05-05 16:06 49.38710 9.81863 22842 ft 361 kts 133°
2026-05-05 16:06 49.37047 9.84749 22810 ft 361 kts 134°
2026-05-05 16:07 49.35381 9.87629 22826 ft 361 kts 134°
2026-05-05 16:07 49.33710 9.90508 22828 ft 362 kts 134°
2026-05-05 16:07 49.32035 9.93392 22833 ft 362 kts 134°
2026-05-05 16:07 49.30362 9.96274 22840 ft 363 kts 133°
2026-05-05 16:08 49.28683 9.99163 22839 ft 363 kts 133°
2026-05-05 16:08 49.27571 10.01073 22840 ft 363 kts 134°
2026-05-05 16:08 49.25890 10.03958 22840 ft 363 kts 134°
2026-05-05 16:08 49.24210 10.06840 22843 ft 363 kts 134°
2026-05-05 16:09 49.22527 10.09722 22846 ft 363 kts 134°
2026-05-05 16:09 49.20844 10.12595 22859 ft 363 kts 134°
2026-05-05 16:09 49.19160 10.15471 22864 ft 363 kts 134°
2026-05-05 16:09 49.17495 10.18315 22865 ft 363 kts 134°
2026-05-05 16:10 49.15808 10.21196 22872 ft 364 kts 134°
2026-05-05 16:10 49.14119 10.24078 22861 ft 364 kts 134°
2026-05-05 16:10 49.12413 10.26921 22863 ft 363 kts 135°
2026-05-05 16:10 49.10690 10.29713 22870 ft 361 kts 136°
2026-05-05 16:11 49.08950 10.32485 22869 ft 361 kts 136°
2026-05-05 16:11 49.03744 10.40759 22865 ft 361 kts 136°
2026-05-05 16:12 49.02006 10.43534 22861 ft 362 kts 135°
2026-05-05 16:12 48.98539 10.49090 22858 ft 362 kts 135°
2026-05-05 16:13 48.93326 10.57413 22855 ft 362 kts 136°
2026-05-05 16:13 48.91586 10.60180 22839 ft 362 kts 136°
2026-05-05 16:13 48.89893 10.62871 22539 ft 367 kts 136°
2026-05-05 16:14 48.86408 10.68404 21591 ft 356 kts 136°
2026-05-05 16:14 48.83041 10.73734 20752 ft 343 kts 136°
2026-05-05 16:15 48.79772 10.78885 19897 ft 334 kts 137°
2026-05-05 16:15 48.76582 10.83899 19077 ft 326 kts 137°
2026-05-05 16:16 48.73457 10.88786 18266 ft 320 kts 137°
2026-05-05 16:16 48.70392 10.93574 17437 ft 313 kts 137°
2026-05-05 16:17 48.67412 10.98228 16675 ft 303 kts 137°
2026-05-05 16:17 48.65950 11.00506 16298 ft 300 kts 137°
2026-05-05 16:18 48.63028 11.05052 15721 ft 309 kts 138°
2026-05-05 16:18 48.61525 11.07379 15327 ft 309 kts 138°
2026-05-05 16:18 48.58533 11.11999 14520 ft 306 kts 139°
2026-05-05 16:19 48.56898 11.14002 14107 ft 301 kts 150°
2026-05-05 16:19 48.55163 11.15756 13692 ft 299 kts 150°
2026-05-05 16:19 48.52225 11.20113 12828 ft 306 kts 124°
2026-05-05 16:20 48.50970 11.26432 12189 ft 333 kts 97°
2026-05-05 16:20 48.50627 11.33404 11511 ft 333 kts 96°
2026-05-05 16:21 48.50272 11.40321 10855 ft 329 kts 96°
2026-05-05 16:22 48.49728 11.50518 9948 ft 316 kts 97°
2026-05-05 16:22 48.49391 11.56895 9615 ft 298 kts 97°
2026-05-05 16:23 48.49051 11.63119 9184 ft 296 kts 97°
2026-05-05 16:23 48.48884 11.66186 8927 ft 294 kts 98°
2026-05-05 16:23 48.48545 11.72286 8423 ft 291 kts 96°
2026-05-05 16:24 48.48377 11.75308 8161 ft 288 kts 97°
2026-05-05 16:24 48.48213 11.78310 7927 ft 287 kts 98°
2026-05-05 16:24 48.47879 11.84264 7419 ft 285 kts 96°
2026-05-05 16:25 48.47711 11.87240 7152 ft 286 kts 97°
2026-05-05 16:25 48.47371 11.93201 6685 ft 284 kts 96°
2026-05-05 16:25 48.47198 11.96167 6551 ft 284 kts 96°
2026-05-05 16:26 48.46858 12.02075 6051 ft 284 kts 95°
2026-05-05 16:26 48.46280 12.07915 5652 ft 281 kts 115°
2026-05-05 16:27 48.45288 12.10446 5487 ft 282 kts 125°
2026-05-05 16:27 48.44147 12.12831 5297 ft 280 kts 128°
2026-05-05 16:27 48.42767 12.14868 5119 ft 280 kts 151°
2026-05-05 16:27 48.40965 12.15710 4989 ft 267 kts 182°
2026-05-05 16:28 48.39294 12.14921 4942 ft 244 kts 219°
2026-05-05 16:28 48.38398 12.12913 4964 ft 232 kts 259°
2026-05-05 16:28 48.38520 12.10561 4965 ft 227 kts 287°
2026-05-05 16:28 48.38768 12.08212 4805 ft 227 kts 265°
2026-05-05 16:29 48.38506 12.05904 4561 ft 221 kts 263°
2026-05-05 16:29 48.38307 12.03660 4262 ft 214 kts 266°
2026-05-05 16:29 48.38141 12.01456 3982 ft 209 kts 265°
2026-05-05 16:29 48.37984 11.99357 3725 ft 199 kts 266°
2026-05-05 16:30 48.37834 11.97345 3467 ft 185 kts 265°
2026-05-05 16:30 48.37696 11.95494 3255 ft 177 kts 266°
2026-05-05 16:30 48.37565 11.93762 3037 ft 156 kts 267°
2026-05-05 16:30 48.37449 11.92235 2833 ft 141 kts 268°
2026-05-05 16:31 48.37337 11.90802 2623 ft 135 kts 267°
2026-05-05 16:31 48.37238 11.89404 2478 ft 134 kts 268°
2026-05-05 16:31 48.37142 11.88016 2329 ft 133 kts 266°
2026-05-05 16:31 48.37037 11.86621 2111 ft 136 kts 264°
2026-05-05 16:32 48.36929 11.85197 1931 ft 138 kts 263°
2026-05-05 16:32 48.36820 11.83752 1723 ft 140 kts 262°
2026-05-05 16:32 48.36699 11.82282 1562 ft 143 kts 261°
2026-05-05 16:32 48.36590 11.80829 1487 ft 129 kts 262°
2026-05-05 16:33 48.36501 11.79717 1477 ft 82 kts 263°
2026-05-05 16:33 48.36459 11.79166 1485 ft 33 kts 263°
2026-05-05 16:33 48.36372 11.78850 1485 ft 33 kts 234°
2026-05-05 16:33 48.36279 11.78666 1481 ft 22 kts 232°
2026-05-05 16:34 48.36194 11.78498 1483 ft 18 kts 232°
2026-05-05 16:34 48.36087 11.78477 1477 ft 17 kts 170°
2026-05-05 16:34 48.36036 11.78609 1482 ft 18 kts 83°
2026-05-05 16:34 48.36051 11.78802 1473 ft 20 kts 83°
2026-05-05 16:35 48.36069 11.79016 1485 ft 22 kts 83°
2026-05-05 16:35 48.36086 11.79230 1480 ft 18 kts 83°
2026-05-05 16:35 48.36010 11.79332 1480 ft 18 kts 171°
2026-05-05 16:35 48.35881 11.79369 1475 ft 20 kts 166°
2026-05-05 16:36 48.35738 11.79405 1485 ft 21 kts 173°
2026-05-05 16:36 48.35602 11.79427 1475 ft 21 kts 174°
2026-05-05 16:36 48.35452 11.79454 1475 ft 23 kts 173°
2026-05-05 16:36 48.35317 11.79477 1481 ft 13 kts 173°
2026-05-05 16:37 48.35247 11.79461 1475 ft 8 kts 248°
2026-05-05 16:37 48.35239 11.79373 1477 ft 9 kts 264°
2026-05-05 16:37 48.35237 11.79355 1486 ft 0 kts 263°